[[[{"header":{"parameterUnit":"kt","parameterCategory":2,"dx":1,"dy":1,"la1":30.253999710083008,"la2":30.299108505249023,"lo1":-89.0895004272461,"lo2":-89.04439544677734,"nx":28,"ny":28,"refTime":"2022-10-25T21:00:00:Z","depth":"0","parameterNumber":2,"parameterNumberName":"U-component_of_CURRENTS"},"data":[-0.3225,-0.3172,-0.3179,-0.3064,-0.307,-0.2943,-0.2913,-0.2876,-0.2921,-0.2912,-0.299,-0.3149,-0.3104,-0.3166,-0.2859,-0.2664,-0.2595,-0.2501,-0.2546,-0.2754,-0.2798,-0.284,-0.2817,-0.2426,-0.2426,-0.2214,-0.2213,-0.2212,-0.3309,-0.3316,-0.3335,-0.3357,-0.3328,-0.342,-0.3478,-0.3424,-0.3399,-0.3539,-0.3551,-0.3544,-0.3321,-0.3228,-0.299,-0.2814,-0.2741,-0.2744,-0.2796,-0.2739,-0.2956,-0.2921,-0.2547,-0.2547,-0.2547,-0.2547,-0.2547,-0.2547,-0.3474,-0.3464,-0.3517,-0.3543,-0.36,-0.363,-0.3606,-0.374,-0.3788,-0.3841,-0.3989,-0.3951,-0.3845,-0.36,-0.3465,-0.3209,-0.3346,-0.3133,-0.3211,-0.3265,-0.3142,-0.3368,-0.311,-0.3112,-0.3114,-0.3116,-0.3118,0,-0.3599,-0.3633,-0.3679,-0.3727,-0.3778,-0.3842,-0.3939,-0.398,-0.4175,-0.4227,-0.4274,-0.427,-0.4177,-0.3987,-0.3814,-0.3716,-0.3711,-0.3678,-0.3675,-0.3501,-0.3493,-0.3381,-0.3739,-0.3544,-0.3549,-0.3553,-0.3555,-0.3557,-0.3719,-0.3741,-0.3859,-0.3884,-0.3938,-0.4017,-0.4077,-0.4247,-0.4307,-0.4462,-0.4466,-0.4471,-0.4449,-0.4303,-0.4188,-0.4051,-0.4058,-0.3797,-0.3827,-0.3774,-0.3812,-0.3857,-0.3778,-0.3609,-0.3602,-0.3597,-0.3593,0,-0.3767,-0.3867,-0.3927,-0.4069,-0.4109,-0.4141,-0.4285,-0.4337,-0.4464,-0.4521,-0.4541,-0.4641,-0.4599,-0.4583,-0.451,-0.4438,-0.4253,-0.4256,-0.409,-0.4034,-0.3834,-0.3891,-0.3744,-0.3631,-0.4034,-0.403,-0.4026,0,-0.3879,-0.3917,-0.4054,-0.4084,-0.4149,-0.4283,-0.4353,-0.4447,-0.4557,-0.4606,-0.4701,-0.4715,-0.4741,-0.4695,-0.4655,-0.4504,-0.4569,-0.4406,-0.4368,-0.4247,-0.4223,-0.4139,-0.4184,-0.4545,-0.4546,-0.4547,-0.4547,0,-0.3905,-0.4035,-0.4094,-0.414,-0.4299,-0.4346,-0.4423,-0.4545,-0.4604,-0.4694,-0.4716,-0.4768,-0.4758,-0.4729,-0.4674,-0.4698,-0.459,-0.4618,-0.4423,-0.4412,-0.422,-0.4192,-0.4112,-0.4549,-0.4549,-0.455,-0.455,0,-0.3992,-0.4054,-0.4136,-0.4268,-0.4298,-0.4358,-0.4475,-0.4555,-0.4657,-0.4695,-0.4739,-0.4754,-0.4791,-0.4765,-0.4737,-0.4758,-0.4691,-0.4658,-0.4652,-0.4484,-0.4447,-0.4176,-0.4139,-0.4103,-0.4559,-0.456,-0.456,0,-0.3993,-0.4083,-0.4158,-0.4241,-0.4295,-0.4382,-0.4467,-0.455,-0.4603,-0.4654,-0.4693,-0.4731,-0.474,-0.4745,-0.4753,-0.4733,-0.4703,-0.4747,-0.4598,-0.4592,-0.4454,-0.4469,-0.4307,-0.4166,-0.457,-0.4569,-0.4569,0,-0.3991,-0.4124,-0.4124,-0.4171,-0.4278,-0.4321,-0.4413,-0.45,-0.4538,-0.4589,-0.4627,-0.4709,-0.4695,-0.4715,-0.4728,-0.4724,-0.4714,-0.468,-0.4677,-0.4607,-0.4632,-0.4498,-0.4477,-0.4709,-0.4709,-0.4709,-0.4577,0,-0.4073,-0.4109,-0.4129,-0.4207,-0.4258,-0.4302,-0.4379,-0.4425,-0.4443,-0.4478,-0.454,-0.4569,-0.46,-0.4631,-0.4636,-0.4679,-0.4629,-0.4626,-0.4568,-0.4626,-0.456,-0.4554,-0.4596,-0.4594,-0.4593,-0.4591,0,0,-0.4042,-0.4085,-0.4122,-0.4172,-0.4208,-0.4243,-0.429,-0.4335,-0.4386,-0.4408,-0.439,-0.4461,-0.4477,-0.455,-0.4586,-0.4597,-0.4551,-0.4563,-0.461,-0.4612,-0.4614,-0.4554,-0.455,-0.4589,-0.4588,-0.4588,-0.4587,0,-0.4071,-0.4083,-0.4107,-0.4154,-0.4207,-0.4243,-0.4251,-0.43,-0.4317,-0.4372,-0.4366,-0.4398,-0.4438,-0.4469,-0.4488,-0.4572,-0.4499,-0.458,-0.4616,-0.4599,-0.4603,-0.4607,-0.4549,-0.4546,-0.4584,-0.4584,-0.4584,0,-0.4077,-0.4106,-0.4111,-0.4166,-0.4191,-0.4243,-0.4224,-0.4258,-0.4299,-0.4269,-0.4309,-0.4321,-0.4339,-0.4397,-0.4414,-0.4387,-0.4438,-0.4448,-0.4456,-0.4435,-0.4412,-0.4419,-0.4425,-0.4344,-0.4344,-0.4343,0,0,-0.4095,-0.4113,-0.4164,-0.4173,-0.4194,-0.4221,-0.4236,-0.4247,-0.4269,-0.4272,-0.4274,-0.4283,-0.4317,-0.4325,-0.4348,-0.4393,-0.4345,-0.4421,-0.4432,-0.4441,-0.4426,-0.4406,-0.4413,-0.4341,-0.4341,-0.434,0,0,-0.41,-0.4146,-0.4145,-0.4161,-0.4203,-0.4243,-0.4252,-0.4253,-0.4269,-0.4253,-0.4244,-0.4244,-0.4286,-0.4276,-0.4247,-0.4333,-0.4284,-0.429,-0.4344,-0.4357,-0.4368,-0.4345,-0.4207,0,0,0,0,0,-0.4139,-0.4146,-0.4145,-0.4152,-0.4191,-0.4248,-0.4255,-0.4255,-0.4224,-0.4242,-0.4243,-0.4212,-0.4269,-0.4243,-0.4245,-0.4284,-0.431,-0.4315,-0.432,-0.44,-0.4414,-0.4427,0,0,0,0,0,0,-0.4141,-0.4149,-0.4146,-0.4184,-0.4194,-0.4246,-0.4215,-0.4217,-0.4223,-0.4218,-0.4216,-0.4213,-0.421,-0.4239,-0.4242,-0.428,-0.4206,-0.4312,-0.4317,-0.4321,-0.4405,-0.4417,-0.4427,0,0,0,0,0,-0.4144,-0.415,-0.4206,-0.4185,-0.4193,-0.4204,-0.4213,-0.4214,-0.4213,-0.422,-0.4216,-0.4209,-0.4212,-0.4212,-0.4241,-0.428,-0.4204,-0.4205,-0.4315,-0.4319,-0.4322,-0.4411,0,0,0,0,0,0,-0.4145,-0.4154,-0.4208,-0.4212,-0.4164,-0.4201,-0.4204,-0.4212,-0.4213,-0.4212,-0.4214,-0.421,-0.4214,-0.4213,-0.4214,-0.4282,-0.4202,-0.4204,-0.4204,-0.4318,-0.4321,-0.4323,0,0,0,0,0,0,-0.4151,-0.4157,-0.421,-0.4185,-0.4185,-0.4198,-0.4201,-0.4219,-0.4211,-0.4206,-0.4204,-0.4212,-0.4199,-0.4215,-0.4215,-0.4245,-0.4201,-0.4202,-0.4203,-0.4203,-0.432,-0.4322,0,0,0,0,0,0,-0.4154,-0.4159,-0.4184,-0.4184,-0.4184,-0.4223,-0.4213,-0.4243,-0.4219,-0.4205,-0.4214,-0.4211,-0.42,-0.42,-0.4216,-0.4246,-0.4245,-0.4201,-0.4202,-0.4202,-0.4203,0,0,0,0,0,0,0,-0.4156,-0.4117,-0.4189,-0.4184,-0.4184,-0.4244,-0.4245,-0.4246,-0.4219,-0.4216,-0.4214,-0.4212,-0.4195,-0.4196,-0.4197,-0.4247,0,0,-0.4201,-0.4202,0,0,0,0,0,0,0,0,-0.4116,-0.4117,-0.4189,-0.419,-0.419,-0.4244,-0.4245,-0.4246,-0.4218,-0.4216,-0.4215,-0.4213,-0.4195,-0.4196,-0.4197,0,0,0,0,0,0,0,0,0,0,0,0,0,0,0,-0.4189,-0.419,0,-0.4244,-0.4245,-0.4245,-0.4218,-0.4217,-0.4215,-0.4214,-0.4196,-0.4196,-0.4197,0,0,0,0,0,0,0,0,0,0,0,0,0,0,0,0,0,0,0,0,0,0,0,0,0,0,0,0,0,0,0,0,0,0,0,0,0,0,0,0,0,0,0,0,0,0,0,0,0,0,0,0,0,0,0,0,0,0,0,0,0,0,0,0,0,0,0,0,0]}],[{"header":{"parameterUnit":"kt","parameterCategory":2,"dx":1,"dy":1,"la1":30.253999710083008,"la2":30.299108505249023,"lo1":-89.0895004272461,"lo2":-89.04439544677734,"nx":28,"ny":28,"refTime":"2022-10-25T21:00:00:Z","depth":"0","parameterNumber":3,"parameterNumberName":"V-component_of_CURRENTS"},"data":[-0.167,-0.1809,-0.1894,-0.2128,-0.2242,-0.2371,-0.2419,-0.2442,-0.2331,-0.2007,-0.1586,-0.1226,-0.0071,0.1578,0.2525,0.2615,0.2945,0.2898,0.3092,0.2621,0.2564,0.251,0.2536,0.3056,0.3057,0.378,0.3787,0.3793,-0.164,-0.1744,-0.1882,-0.2048,-0.2178,-0.2203,-0.2306,-0.2332,-0.2343,-0.2171,-0.1982,-0.114,-0.0328,0.0468,0.1511,0.1899,0.2021,0.2099,0.2227,0.2333,0.1643,0.1641,0.1978,0.1978,0.1978,0.1978,0.1977,0.1977,-0.1594,-0.1677,-0.1791,-0.1921,-0.2027,-0.2141,-0.2201,-0.2233,-0.2237,-0.2124,-0.1912,-0.1593,-0.076,0.0119,0.0459,0.1204,0.1155,0.1417,0.1508,0.1555,0.1721,0.0882,0.1145,0.1144,0.1143,0.1143,0.1142,0,-0.1552,-0.1595,-0.1677,-0.1819,-0.1902,-0.1991,-0.2042,-0.2072,-0.1993,-0.1928,-0.1785,-0.1594,-0.0985,-0.0438,0.0173,0.0464,0.0924,0.0781,0.1047,0.1277,0.1334,0.1534,0.067,0.0882,0.088,0.0878,0.0877,0.0876,-0.1482,-0.154,-0.1654,-0.172,-0.1752,-0.1812,-0.1858,-0.1813,-0.1811,-0.1653,-0.1639,-0.1329,-0.1108,-0.0508,-0.005,0.0409,0.0625,0.0713,0.0718,0.0939,0.1087,0.1148,0.1277,0.085,0.0853,0.0856,0.0858,0,-0.1441,-0.1475,-0.157,-0.1626,-0.165,-0.1698,-0.172,-0.1727,-0.1627,-0.1569,-0.1529,-0.1278,-0.0964,-0.0617,-0.0217,-0.0002,0.0488,0.0423,0.0414,0.048,0.0894,0.0977,0.1367,0.1548,0.0679,0.0682,0.0684,0,-0.1374,-0.1435,-0.1484,-0.1525,-0.1608,-0.1573,-0.1603,-0.1557,-0.1468,-0.1433,-0.1228,-0.1147,-0.0799,-0.0566,-0.0326,0.0016,0.0013,0.025,0.0321,0.0349,0.0355,0.0664,0.0761,0.0261,0.0259,0.0258,0.0256,0,-0.1292,-0.1362,-0.1439,-0.145,-0.1469,-0.1485,-0.1475,-0.1378,-0.1355,-0.1201,-0.1154,-0.0936,-0.0816,-0.0586,-0.0306,-0.0313,0.0016,0.0055,0.0252,0.0257,0.04,0.0413,0.0738,0.0254,0.0254,0.0253,0.0253,0,-0.1218,-0.1263,-0.1346,-0.1387,-0.1392,-0.1405,-0.1364,-0.1338,-0.1199,-0.1131,-0.0996,-0.0863,-0.0699,-0.0629,-0.0332,-0.0401,-0.0238,-0.0099,-0.0087,0.0023,0.0087,0.0284,0.0343,0.0604,0.0059,0.0057,0.0055,0,-0.1144,-0.1224,-0.1205,-0.1265,-0.1295,-0.1222,-0.1215,-0.1147,-0.1059,-0.0983,-0.0825,-0.0736,-0.0648,-0.0592,-0.0485,-0.0301,-0.021,-0.0309,-0.0003,0.0006,0.0039,0.0065,0.0121,0.0302,0.0028,0.003,0.0033,0,-0.1073,-0.1101,-0.1107,-0.1136,-0.1093,-0.1088,-0.1063,-0.1012,-0.0985,-0.088,-0.0828,-0.0692,-0.0603,-0.0532,-0.0426,-0.0331,-0.0251,-0.0262,-0.0253,-0.0201,-0.0028,0.0021,0.0045,-0.0188,-0.0185,-0.0183,0.0011,0,-0.102,-0.1041,-0.1053,-0.1054,-0.1036,-0.1035,-0.0965,-0.0931,-0.0869,-0.0798,-0.0704,-0.0573,-0.046,-0.042,-0.0359,-0.0278,-0.024,-0.0188,-0.0136,-0.0153,-0.0066,-0.0049,-0.0205,-0.0203,-0.0201,-0.0199,0,0,-0.0953,-0.0979,-0.093,-0.0949,-0.0937,-0.0846,-0.0868,-0.0812,-0.0718,-0.0681,-0.065,-0.0465,-0.0375,-0.0281,-0.0287,-0.0236,-0.0168,-0.0226,-0.0153,-0.0149,-0.0145,-0.0063,-0.005,-0.0195,-0.0195,-0.0194,-0.0193,0,-0.093,-0.0902,-0.093,-0.0908,-0.0864,-0.0815,-0.0817,-0.0737,-0.0694,-0.0644,-0.0544,-0.0463,-0.0353,-0.0264,-0.0207,-0.0215,-0.0113,-0.0191,-0.0249,-0.014,-0.0138,-0.0136,-0.0057,-0.0046,-0.0188,-0.0189,-0.0189,0,-0.0882,-0.0858,-0.086,-0.0824,-0.0782,-0.0775,-0.0699,-0.0666,-0.0651,-0.0524,-0.0473,-0.0388,-0.0273,-0.0214,-0.0179,-0.0151,-0.0055,-0.0095,-0.0104,-0.0103,0.0015,0.0016,0.0016,0.0009,0.0009,0.0009,0,0,-0.0865,-0.0872,-0.0813,-0.0812,-0.0797,-0.0718,-0.0691,-0.0644,-0.057,-0.0538,-0.0452,-0.0355,-0.0279,-0.0231,-0.0153,-0.0098,-0.0019,-0.0078,-0.0087,-0.0096,-0.01,0.0015,0.0015,0.0009,0.0009,0.0009,0,0,-0.0844,-0.0799,-0.0777,-0.0772,-0.0733,-0.0643,-0.063,-0.0584,-0.0514,-0.0496,-0.0386,-0.0358,-0.0299,-0.0224,-0.0238,-0.0134,-0.0087,-0.0082,-0.0198,-0.0208,-0.0217,-0.0244,-0.0152,0,0,0,0,0,-0.0797,-0.0811,-0.0792,-0.0783,-0.0702,-0.066,-0.0645,-0.0571,-0.0534,-0.0536,-0.0446,-0.0383,-0.0206,-0.0216,-0.0191,-0.019,0.0008,0.0009,0.0009,-0.0127,-0.0139,-0.0148,0,0,0,0,0,0,-0.0793,-0.0784,-0.0791,-0.0708,-0.0688,-0.0659,-0.0589,-0.0569,-0.0533,-0.0524,-0.0402,-0.038,-0.0301,-0.0222,-0.0201,-0.0202,-0.0159,0.0008,0.0009,0.0009,-0.0131,-0.014,-0.0149,0,0,0,0,0,-0.0789,-0.0781,-0.0681,-0.0705,-0.0688,-0.0594,-0.0589,-0.0571,-0.054,-0.042,-0.0397,-0.0489,-0.0304,-0.0279,-0.0209,-0.0214,-0.0173,-0.0165,0.0009,0.0009,0.0009,-0.0136,0,0,0,0,0,0,-0.0786,-0.0753,-0.0674,-0.0664,-0.0702,-0.0594,-0.0578,-0.0574,-0.0436,-0.0415,-0.0502,-0.0496,-0.0305,-0.0286,-0.0268,-0.0224,-0.0184,-0.0176,-0.0172,0.0009,0.0009,0.0009,0,0,0,0,0,0,-0.0756,-0.0746,-0.0669,-0.067,-0.0659,-0.0594,-0.0581,-0.0507,-0.0434,-0.0523,-0.0515,-0.0501,-0.0323,-0.0291,-0.0276,-0.0164,-0.0192,-0.0185,-0.018,-0.0177,0.0009,0.0009,0,0,0,0,0,0,-0.0749,-0.074,-0.0671,-0.0663,-0.0654,-0.0537,-0.0524,-0.0438,-0.0459,-0.053,-0.0457,-0.0456,-0.0328,-0.0312,-0.0283,-0.0177,-0.0167,-0.0192,-0.0187,-0.0184,-0.0181,0,0,0,0,0,0,0,-0.0744,-0.0835,-0.0735,-0.0658,-0.065,-0.0574,-0.0571,-0.0568,-0.0459,-0.0458,-0.0457,-0.0456,-0.0234,-0.0226,-0.0218,-0.0188,0,0,-0.0193,-0.0189,0,0,0,0,0,0,0,0,-0.0836,-0.0835,-0.0735,-0.0733,-0.0731,-0.0574,-0.0571,-0.0569,-0.0459,-0.0458,-0.0457,-0.0456,-0.0232,-0.0225,-0.0219,0,0,0,0,0,0,0,0,0,0,0,0,0,0,0,-0.0735,-0.0733,0,-0.0573,-0.0571,-0.057,-0.0459,-0.0458,-0.0457,-0.0457,-0.023,-0.0225,-0.0219,0,0,0,0,0,0,0,0,0,0,0,0,0,0,0,0,0,0,0,0,0,0,0,0,0,0,0,0,0,0,0,0,0,0,0,0,0,0,0,0,0,0,0,0,0,0,0,0,0,0,0,0,0,0,0,0,0,0,0,0,0,0,0,0,0,0,0,0,0]}]],[[{"header":{"parameterUnit":"kt","parameterCategory":2,"dx":1,"dy":1,"la1":30.253999710083008,"la2":30.299108505249023,"lo1":-89.0895004272461,"lo2":-89.04439544677734,"nx":28,"ny":28,"refTime":"2022-10-25T21:00:00:Z","depth":"2","parameterNumber":2,"parameterNumberName":"U-component_of_CURRENTS"},"data":[-0.2997,-0.2936,-0.2933,-0.2807,-0.2807,-0.2679,-0.2645,-0.2596,-0.2611,-0.2538,-0.2523,-0.2737,-0.2736,-0.2263,-0.2088,-0.1841,-0.2032,-0.1734,-0.2537,-0.2628,-0.2682,-0.2788,-0.2728,0,0,0,0,0,-0.3077,-0.3078,-0.3083,-0.3092,-0.3054,-0.3141,-0.318,-0.3118,-0.3087,-0.3197,-0.3215,-0.2927,-0.2759,-0.2716,-0.2387,-0.2286,-0.2276,-0.2169,-0.2183,-0.2248,-0.2306,-0.2219,-0.1666,-0.1663,-0.166,-0.1657,0,0,-0.3232,-0.3219,-0.3261,-0.3276,-0.3325,-0.334,-0.331,-0.3425,-0.3465,-0.3515,-0.3676,-0.3608,-0.3558,-0.3224,-0.302,-0.2862,-0.3123,-0.2985,-0.301,-0.3042,-0.2989,-0.2929,-0.2643,-0.2646,-0.2649,-0.2652,-0.2655,0,-0.3346,-0.3378,-0.3418,-0.3453,-0.3499,-0.355,-0.3635,-0.3671,-0.3857,-0.391,-0.397,-0.3977,-0.3912,-0.3682,-0.3534,-0.3437,-0.3531,-0.3366,-0.3886,-0.3352,-0.3297,-0.328,-0.3313,-0.3092,-0.3098,-0.3103,-0.3106,-0.3109,-0.3459,-0.3478,-0.3586,-0.3605,-0.3657,-0.3729,-0.3781,-0.3944,-0.3997,-0.4161,-0.4165,-0.4201,-0.4187,-0.408,-0.3978,-0.3862,-0.3993,-0.3519,-0.3517,-0.3965,-0.3945,-0.3957,-0.3967,-0.3178,-0.3169,-0.3162,-0.3156,0,-0.3505,-0.3596,-0.365,-0.3781,-0.3818,-0.3849,-0.3981,-0.4029,-0.4158,-0.4218,-0.4243,-0.4363,-0.4343,-0.4348,-0.4306,-0.4239,-0.4161,-0.4083,-0.3801,-0.3735,-0.3994,-0.3998,-0.3881,-0.3875,-0.387,-0.3866,-0.3862,0,-0.361,-0.3644,-0.3771,-0.3798,-0.3856,-0.3983,-0.405,-0.4141,-0.4252,-0.4301,-0.4408,-0.4431,-0.4479,-0.4453,-0.4426,-0.4295,-0.4368,-0.4204,-0.417,-0.3948,-0.3916,-0.4325,-0.4322,-0.4354,-0.4355,-0.4356,-0.4356,0,-0.3638,-0.3755,-0.3809,-0.3851,-0.3996,-0.4043,-0.4115,-0.4238,-0.4293,-0.4395,-0.4422,-0.4488,-0.4491,-0.4476,-0.4439,-0.4458,-0.4383,-0.4406,-0.4219,-0.4207,-0.3926,-0.3889,-0.4357,-0.4357,-0.4358,-0.4358,-0.4358,0,-0.3718,-0.3774,-0.3849,-0.3967,-0.3995,-0.4055,-0.4167,-0.4244,-0.435,-0.4393,-0.4447,-0.447,-0.4517,-0.4495,-0.4487,-0.4499,-0.4447,-0.4423,-0.4419,-0.4246,-0.4209,-0.386,-0.3807,-0.4342,-0.4342,-0.4343,-0.4343,0,-0.3721,-0.38,-0.3868,-0.3947,-0.3996,-0.408,-0.416,-0.4244,-0.4303,-0.4358,-0.4404,-0.4449,-0.4457,-0.4468,-0.4482,-0.4471,-0.4453,-0.4483,-0.4363,-0.4359,-0.4213,-0.4233,-0.3956,-0.3833,-0.4349,-0.4349,-0.4348,0,-0.3717,-0.3836,-0.3836,-0.3877,-0.3982,-0.4023,-0.4113,-0.4199,-0.4238,-0.4297,-0.4339,-0.4423,-0.4416,-0.4437,-0.4451,-0.4455,-0.4458,-0.4414,-0.4412,-0.4355,-0.4401,-0.4257,-0.4239,-0.4454,-0.4454,-0.4454,-0.4353,0,-0.3787,-0.3819,-0.384,-0.391,-0.3961,-0.4006,-0.4081,-0.4127,-0.4151,-0.419,-0.4256,-0.4289,-0.4325,-0.4355,-0.4361,-0.4408,-0.4363,-0.4359,-0.4305,-0.4364,-0.4311,-0.4307,-0.4322,-0.432,-0.4318,-0.4317,0,0,-0.3758,-0.3794,-0.3828,-0.3874,-0.3911,-0.3948,-0.3995,-0.404,-0.4096,-0.412,-0.4107,-0.4185,-0.4204,-0.4276,-0.4311,-0.4322,-0.4284,-0.4291,-0.4345,-0.4348,-0.4351,-0.4304,-0.4302,-0.4315,-0.4314,-0.4314,-0.4313,0,-0.3779,-0.379,-0.3812,-0.3857,-0.391,-0.3946,-0.3956,-0.4008,-0.4028,-0.4087,-0.4084,-0.4121,-0.4165,-0.4196,-0.4215,-0.4299,-0.4235,-0.4306,-0.4342,-0.4334,-0.4339,-0.4343,-0.4298,-0.4298,-0.431,-0.431,-0.431,0,-0.378,-0.3806,-0.3812,-0.3863,-0.389,-0.3941,-0.3927,-0.3964,-0.4006,-0.3983,-0.4029,-0.4044,-0.4064,-0.4124,-0.4143,-0.4118,-0.4176,-0.418,-0.4188,-0.4169,-0.4156,-0.4163,-0.417,-0.4081,-0.4081,-0.408,0,0,-0.3793,-0.3809,-0.3858,-0.3869,-0.389,-0.392,-0.3939,-0.3952,-0.3979,-0.3985,-0.3994,-0.4007,-0.4042,-0.4054,-0.4079,-0.4126,-0.4085,-0.4154,-0.4165,-0.4174,-0.416,-0.415,-0.4158,-0.4078,-0.4078,-0.4078,0,0,-0.3797,-0.3839,-0.3839,-0.3855,-0.3899,-0.3941,-0.3953,-0.3958,-0.398,-0.3969,-0.3965,-0.3967,-0.4013,-0.4005,-0.3976,-0.4065,-0.4018,-0.4024,-0.4074,-0.4087,-0.4097,-0.4075,-0.394,0,0,0,0,0,-0.383,-0.3838,-0.3838,-0.3845,-0.3886,-0.3943,-0.3951,-0.3958,-0.3933,-0.3952,-0.3959,-0.3933,-0.3998,-0.3972,-0.3976,-0.4015,-0.4048,-0.4053,-0.4058,-0.4133,-0.4147,-0.4159,0,0,0,0,0,0,-0.3833,-0.384,-0.3839,-0.3878,-0.3888,-0.3942,-0.3916,-0.3919,-0.3932,-0.3929,-0.3935,-0.3934,-0.3933,-0.3969,-0.3972,-0.401,-0.3939,-0.405,-0.4055,-0.4059,-0.4138,-0.4149,-0.4159,0,0,0,0,0,-0.3835,-0.3841,-0.3899,-0.3879,-0.3887,-0.3906,-0.3914,-0.3916,-0.3922,-0.3933,-0.3932,-0.3924,-0.3935,-0.3936,-0.3971,-0.401,-0.3936,-0.3938,-0.4053,-0.4056,-0.406,-0.4144,0,0,0,0,0,0,-0.3837,-0.3848,-0.3901,-0.3905,-0.3861,-0.3904,-0.3908,-0.3914,-0.3925,-0.3925,-0.3922,-0.392,-0.3936,-0.3937,-0.3939,-0.4011,-0.3934,-0.3936,-0.3937,-0.4056,-0.4058,-0.4061,0,0,0,0,0,0,-0.3845,-0.3851,-0.3903,-0.3881,-0.3882,-0.3901,-0.3905,-0.3925,-0.3923,-0.3912,-0.3912,-0.3921,-0.3921,-0.3938,-0.3939,-0.3973,-0.3932,-0.3934,-0.3935,-0.3935,-0.4058,-0.406,0,0,0,0,0,0,-0.3848,-0.3853,-0.388,-0.3881,-0.3882,-0.3927,-0.3919,-0.3951,-0.393,-0.3911,-0.3926,-0.3924,-0.3921,-0.3923,-0.3939,-0.3973,-0.3973,-0.3932,-0.3933,-0.3934,-0.3935,0,0,0,0,0,0,0,-0.3851,-0.3808,-0.3878,-0.3881,-0.3882,-0.3943,-0.3944,-0.3945,-0.393,-0.3928,-0.3926,-0.3925,-0.3924,-0.3926,-0.3927,-0.3973,0,0,-0.3932,-0.3933,0,0,0,0,0,0,0,0,-0.3807,-0.3808,-0.3879,-0.3879,-0.388,-0.3943,-0.3944,-0.3945,-0.393,-0.3928,-0.3927,-0.3925,-0.3925,-0.3926,-0.3927,0,0,0,0,0,0,0,0,0,0,0,0,0,0,0,-0.3879,-0.3879,0,-0.3943,-0.3944,-0.3945,-0.3929,-0.3928,-0.3927,-0.3926,-0.3925,-0.3926,-0.3927,0,0,0,0,0,0,0,0,0,0,0,0,0,0,0,0,0,0,0,0,0,0,0,0,0,0,0,0,0,0,0,0,0,0,0,0,0,0,0,0,0,0,0,0,0,0,0,0,0,0,0,0,0,0,0,0,0,0,0,0,0,0,0,0,0,0,0,0,0]}],[{"header":{"parameterUnit":"kt","parameterCategory":2,"dx":1,"dy":1,"la1":30.253999710083008,"la2":30.299108505249023,"lo1":-89.0895004272461,"lo2":-89.04439544677734,"nx":28,"ny":28,"refTime":"2022-10-25T21:00:00:Z","depth":"2","parameterNumber":3,"parameterNumberName":"V-component_of_CURRENTS"},"data":[-0.1335,-0.1467,-0.1545,-0.1766,-0.1878,-0.2002,-0.2048,-0.2047,-0.1932,-0.1769,-0.1524,-0.1134,-0.0498,-0.0053,0.0439,0.0772,0.078,0.0814,0.0764,0.059,0.0575,0.0881,0.0783,0,0,0,0,0,-0.1301,-0.1401,-0.1534,-0.1695,-0.1821,-0.1853,-0.1953,-0.1969,-0.1966,-0.1796,-0.1604,-0.1069,-0.0497,0.0013,0.0648,0.1017,0.1002,0.1084,0.0991,0.098,0.097,0.0915,0.1077,0.1078,0.1079,0.1079,0,0,-0.1251,-0.1333,-0.1444,-0.1573,-0.1681,-0.1794,-0.1854,-0.1885,-0.1892,-0.178,-0.1586,-0.1263,-0.0772,0.0037,0.0455,0.0854,0.0851,0.0966,0.0957,0.0949,0.0898,0.0841,0.1052,0.1052,0.1053,0.1053,0.1053,0,-0.1208,-0.125,-0.1333,-0.1475,-0.156,-0.1654,-0.1713,-0.1748,-0.1692,-0.1634,-0.1494,-0.1305,-0.0743,-0.0251,0.0312,0.0576,0.0717,0.0825,0.0754,0.0711,0.0647,0.0688,0.067,0.0832,0.0831,0.0831,0.083,0.083,-0.1137,-0.1194,-0.1312,-0.1379,-0.1414,-0.1484,-0.1535,-0.1508,-0.1516,-0.1383,-0.1372,-0.1087,-0.0867,-0.0289,0.0134,0.0577,0.0578,0.0787,0.0785,0.0657,0.0704,0.0685,0.0667,0.0819,0.082,0.0821,0.0822,0,-0.1096,-0.113,-0.1229,-0.1291,-0.1317,-0.1372,-0.1408,-0.1426,-0.1346,-0.1308,-0.1275,-0.1043,-0.0737,-0.0408,-0.0018,0.019,0.0498,0.0606,0.0518,0.0572,0.066,0.0645,0.0842,0.0845,0.0848,0.085,0.0852,0,-0.103,-0.1094,-0.1146,-0.1188,-0.1276,-0.125,-0.1294,-0.1259,-0.1191,-0.1172,-0.0985,-0.091,-0.058,-0.0357,-0.0112,0.0221,0.022,0.045,0.0517,0.0474,0.0473,0.0439,0.0434,0.0467,0.0465,0.0464,0.0462,0,-0.0949,-0.1022,-0.1101,-0.1114,-0.1141,-0.1162,-0.1161,-0.1083,-0.1071,-0.0944,-0.0907,-0.0704,-0.0594,-0.0365,-0.0087,-0.009,0.0229,0.027,0.0454,0.0458,0.0528,0.0535,0.0461,0.046,0.046,0.0459,0.0459,0,-0.0875,-0.092,-0.1007,-0.1053,-0.106,-0.1079,-0.1057,-0.1039,-0.0923,-0.0864,-0.0745,-0.0622,-0.0468,-0.0395,-0.0105,-0.0169,-0.001,0.0127,0.0139,0.024,0.0302,0.0421,0.045,0.0284,0.0282,0.028,0.0278,0,-0.0801,-0.0881,-0.0864,-0.093,-0.0962,-0.0897,-0.0898,-0.0842,-0.0768,-0.0706,-0.056,-0.0486,-0.0394,-0.0347,-0.0243,-0.0065,0.0021,-0.0073,0.0225,0.0234,0.026,0.0274,0.0247,0.0414,0.0252,0.0255,0.0257,0,-0.073,-0.0756,-0.0764,-0.0794,-0.0758,-0.0758,-0.0743,-0.0703,-0.0686,-0.0589,-0.0552,-0.0428,-0.0345,-0.0282,-0.0182,-0.0092,-0.0017,-0.0019,-0.001,0.0043,0.0195,0.0234,0.0256,0.0044,0.0046,0.0048,0.0236,0,-0.0673,-0.0696,-0.0708,-0.0712,-0.0699,-0.0703,-0.064,-0.0612,-0.0557,-0.0493,-0.0415,-0.0294,-0.0196,-0.0161,-0.0101,-0.0033,0.0007,0.0057,0.0113,0.0088,0.0174,0.019,0.0046,0.0048,0.005,0.0052,0,0,-0.0606,-0.0631,-0.0583,-0.0603,-0.0596,-0.0511,-0.0536,-0.0486,-0.0401,-0.0371,-0.0339,-0.0178,-0.0096,-0.0019,-0.0027,0.0018,0.0086,0.0031,0.0091,0.0094,0.0098,0.0178,0.019,0.0056,0.0057,0.0057,0.0058,0,-0.0579,-0.0554,-0.0582,-0.0563,-0.0523,-0.0479,-0.0481,-0.0409,-0.037,-0.033,-0.0237,-0.0167,-0.0069,0.001,0.006,0.0041,0.0143,0.0062,0.0002,0.0105,0.0105,0.0107,0.0184,0.0194,0.0063,0.0063,0.0063,0,-0.0529,-0.0506,-0.0509,-0.0477,-0.0439,-0.0436,-0.0361,-0.0334,-0.0323,-0.0202,-0.0162,-0.0084,0.002,0.0068,0.0097,0.0125,0.0204,0.0167,0.0159,0.0162,0.0273,0.0272,0.0272,0.0278,0.0278,0.0278,0,0,-0.051,-0.0517,-0.0462,-0.0464,-0.0451,-0.0378,-0.0354,-0.031,-0.0244,-0.0215,-0.0136,-0.0049,0.0018,0.006,0.0129,0.0173,0.0251,0.0187,0.0177,0.0168,0.0166,0.0273,0.0273,0.0278,0.0278,0.0278,0,0,-0.0489,-0.0445,-0.0424,-0.0424,-0.0388,-0.0304,-0.0295,-0.0252,-0.019,-0.0174,-0.0071,-0.0045,0.0002,0.0073,0.0064,0.0147,0.0198,0.0201,0.0087,0.0076,0.0066,0.0044,0.0148,0,0,0,0,0,-0.044,-0.0456,-0.0439,-0.043,-0.0357,-0.0321,-0.0307,-0.0238,-0.0203,-0.0207,-0.0125,-0.0065,0.0091,0.0086,0.0108,0.0102,0.0282,0.0281,0.0281,0.0144,0.0132,0.0121,0,0,0,0,0,0,-0.0436,-0.0428,-0.0437,-0.036,-0.0342,-0.0319,-0.0252,-0.0233,-0.0202,-0.0194,-0.0082,-0.0061,0.0013,0.008,0.0099,0.0092,0.0142,0.0282,0.0281,0.0281,0.014,0.013,0.0121,0,0,0,0,0,-0.0433,-0.0426,-0.0336,-0.0357,-0.0342,-0.0255,-0.0251,-0.0235,-0.0208,-0.0097,-0.0076,-0.0161,0.001,0.0032,0.0092,0.0081,0.0129,0.0136,0.0281,0.0281,0.028,0.0135,0,0,0,0,0,0,-0.043,-0.0399,-0.033,-0.0321,-0.0354,-0.0255,-0.0241,-0.0237,-0.0111,-0.0091,-0.017,-0.0165,0.0009,0.0026,0.0043,0.0072,0.0119,0.0126,0.013,0.0281,0.0281,0.028,0,0,0,0,0,0,-0.0402,-0.0393,-0.0325,-0.0325,-0.0315,-0.0255,-0.0243,-0.0177,-0.0109,-0.019,-0.0182,-0.0169,-0.0007,0.0022,0.0035,0.0135,0.0112,0.0118,0.0123,0.0125,0.0281,0.028,0,0,0,0,0,0,-0.0396,-0.0388,-0.0327,-0.0319,-0.0311,-0.0203,-0.0192,-0.0115,-0.0131,-0.0196,-0.0128,-0.0127,-0.0013,0.0002,0.0029,0.0123,0.0132,0.0112,0.0116,0.0119,0.0121,0,0,0,0,0,0,0,-0.0391,-0.0473,-0.0386,-0.0315,-0.0307,-0.0239,-0.0237,-0.0234,-0.0131,-0.013,-0.0129,-0.0128,0.0074,0.0082,0.0089,0.0114,0,0,0.0111,0.0114,0,0,0,0,0,0,0,0,-0.0474,-0.0474,-0.0386,-0.0384,-0.0382,-0.0239,-0.0237,-0.0234,-0.0131,-0.013,-0.0129,-0.0128,0.0076,0.0082,0.0088,0,0,0,0,0,0,0,0,0,0,0,0,0,0,0,-0.0385,-0.0384,0,-0.0239,-0.0237,-0.0235,-0.013,-0.013,-0.0129,-0.0128,0.0078,0.0083,0.0088,0,0,0,0,0,0,0,0,0,0,0,0,0,0,0,0,0,0,0,0,0,0,0,0,0,0,0,0,0,0,0,0,0,0,0,0,0,0,0,0,0,0,0,0,0,0,0,0,0,0,0,0,0,0,0,0,0,0,0,0,0,0,0,0,0,0,0,0,0]}]],[[{"header":{"parameterUnit":"kt","parameterCategory":2,"dx":1,"dy":1,"la1":30.253999710083008,"la2":30.299108505249023,"lo1":-89.0895004272461,"lo2":-89.04439544677734,"nx":28,"ny":28,"refTime":"2022-10-25T21:00:00:Z","depth":"4","parameterNumber":2,"parameterNumberName":"U-component_of_CURRENTS"},"data":[-0.2071,-0.2108,-0.2107,-0.2035,-0.2029,-0.2092,-0.2172,-0.2305,-0.2262,-0.2473,-0.2463,-0.2612,-0.261,-0.2795,-0.2616,-0.2627,-0.2654,-0.2795,-0.2786,-0.2971,-0.3002,-0.3029,-0.2982,0,0,0,0,0,-0.2148,-0.2137,-0.2178,-0.2228,-0.2317,-0.2365,-0.2505,-0.2596,-0.2785,-0.2693,-0.2805,-0.2798,-0.2754,-0.2823,-0.2673,-0.2904,-0.295,-0.2717,-0.2863,-0.2991,-0.3024,-0.2967,0,0,0,0,0,0,-0.2262,-0.2275,-0.2377,-0.2432,-0.2535,-0.2543,-0.263,-0.2671,-0.2735,-0.2953,-0.2942,-0.3064,-0.3207,-0.3089,-0.3054,-0.2973,-0.2945,-0.2851,-0.289,-0.2923,-0.285,-0.275,-0.243,0,0,0,0,0,-0.2357,-0.2448,-0.2522,-0.2614,-0.2704,-0.2775,-0.2884,-0.289,-0.3081,-0.3256,-0.3245,-0.3245,-0.3238,-0.325,-0.3184,-0.3153,-0.3381,-0.325,-0.3268,-0.33,-0.3255,-0.324,-0.3261,-0.3152,-0.3157,-0.3159,-0.3161,0,-0.2482,-0.2522,-0.2713,-0.2762,-0.2851,-0.2969,-0.3036,-0.3221,-0.3265,-0.3458,-0.3455,-0.3545,-0.362,-0.3421,-0.3525,-0.3453,-0.3418,-0.3338,-0.3372,-0.331,-0.3284,-0.3297,-0.3308,-0.3188,-0.3186,-0.3184,-0.3182,0,-0.2539,-0.2661,-0.2754,-0.2935,-0.2996,-0.3059,-0.3229,-0.3286,-0.3448,-0.3526,-0.3572,-0.3729,-0.3746,-0.3805,-0.3821,-0.3714,-0.3642,-0.3546,-0.3826,-0.3807,-0.3356,-0.3356,-0.3233,-0.3223,-0.3215,-0.3208,-0.3202,0,-0.2656,-0.2723,-0.2898,-0.2938,-0.3032,-0.317,-0.3276,-0.3388,-0.3527,-0.3586,-0.3745,-0.3783,-0.3907,-0.392,-0.3918,-0.3773,-0.3916,-0.3646,-0.3605,-0.3902,-0.39,-0.3861,-0.3854,-0.3926,-0.3926,-0.3927,-0.3927,0,-0.27,-0.2844,-0.2923,-0.2972,-0.3137,-0.3213,-0.3306,-0.3458,-0.3527,-0.3687,-0.3738,-0.3853,-0.39,-0.392,-0.3923,-0.3938,-0.3922,-0.3939,-0.3663,-0.3644,-0.3861,-0.3853,-0.3928,-0.3928,-0.3928,-0.3928,-0.3928,0,-0.2786,-0.2851,-0.2951,-0.3084,-0.3119,-0.3203,-0.3349,-0.3442,-0.3589,-0.3662,-0.3762,-0.3817,-0.3906,-0.3895,-0.3941,-0.3943,-0.3914,-0.3906,-0.3903,-0.3619,-0.3563,-0.3746,-0.3837,-0.3836,-0.3836,-0.3836,-0.3836,0,-0.279,-0.2881,-0.2951,-0.3058,-0.3112,-0.3219,-0.3313,-0.3423,-0.352,-0.3617,-0.3697,-0.3784,-0.3805,-0.3845,-0.3881,-0.3895,-0.3897,-0.3902,-0.3827,-0.3824,-0.357,-0.3591,-0.3901,-0.3834,-0.3834,-0.3834,-0.3834,0,-0.2774,-0.2903,-0.2917,-0.2968,-0.3093,-0.3141,-0.3259,-0.3365,-0.3433,-0.3547,-0.3626,-0.3743,-0.3767,-0.3796,-0.3823,-0.3848,-0.3887,-0.3819,-0.3818,-0.3774,-0.3883,-0.362,-0.3595,-0.3895,-0.3896,-0.3897,-0.3833,0,-0.2815,-0.2874,-0.2905,-0.2988,-0.3051,-0.3117,-0.3204,-0.3287,-0.3359,-0.3415,-0.3534,-0.3595,-0.3665,-0.3704,-0.3712,-0.3788,-0.3747,-0.3742,-0.3686,-0.3761,-0.3721,-0.3722,-0.3675,-0.3673,-0.3671,-0.367,0,0,-0.2781,-0.2824,-0.287,-0.2921,-0.2971,-0.3041,-0.3098,-0.3167,-0.3272,-0.3317,-0.3335,-0.3473,-0.3514,-0.3602,-0.3645,-0.3663,-0.3641,-0.3644,-0.373,-0.3737,-0.3743,-0.3709,-0.3713,-0.3667,-0.3667,-0.3666,-0.3665,0,-0.2767,-0.2809,-0.2845,-0.2897,-0.2978,-0.3018,-0.3048,-0.3128,-0.3184,-0.3284,-0.3307,-0.3382,-0.3468,-0.3506,-0.3531,-0.3635,-0.3589,-0.3655,-0.3702,-0.3717,-0.3726,-0.3734,-0.3702,-0.3706,-0.3662,-0.3662,-0.3662,0,-0.2745,-0.2777,-0.28,-0.2866,-0.2915,-0.2974,-0.2982,-0.3058,-0.312,-0.3128,-0.324,-0.3279,-0.3314,-0.3403,-0.3445,-0.3417,-0.3525,-0.3514,-0.3523,-0.3507,-0.3517,-0.3528,-0.3539,-0.3403,-0.3402,-0.3401,0,0,-0.2736,-0.2771,-0.2823,-0.2864,-0.2894,-0.2954,-0.2995,-0.3034,-0.3093,-0.3129,-0.3178,-0.323,-0.3284,-0.3322,-0.3366,-0.3441,-0.3408,-0.3484,-0.3496,-0.3506,-0.3497,-0.351,-0.3521,-0.3399,-0.3399,-0.3398,0,0,-0.273,-0.2779,-0.2799,-0.2841,-0.2899,-0.2951,-0.2999,-0.303,-0.3105,-0.3124,-0.3147,-0.3161,-0.3257,-0.326,-0.3223,-0.3356,-0.3303,-0.3312,-0.3362,-0.3378,-0.339,-0.3367,-0.3196,0,0,0,0,0,-0.2741,-0.2767,-0.2784,-0.2797,-0.2874,-0.2937,-0.2952,-0.3007,-0.3024,-0.3066,-0.3119,-0.3109,-0.3249,-0.3217,-0.3228,-0.3287,-0.3364,-0.337,-0.3376,-0.3458,-0.3474,-0.3488,0,0,0,0,0,0,-0.2746,-0.2758,-0.2784,-0.283,-0.2849,-0.2935,-0.2938,-0.2953,-0.3022,-0.303,-0.3099,-0.3109,-0.3119,-0.3211,-0.3221,-0.3277,-0.3193,-0.3366,-0.3372,-0.3376,-0.3464,-0.3477,-0.3488,0,0,0,0,0,-0.275,-0.276,-0.2865,-0.2831,-0.2847,-0.2924,-0.2938,-0.2951,-0.3016,-0.3049,-0.3062,-0.3061,-0.3118,-0.313,-0.3217,-0.3273,-0.3186,-0.3189,-0.337,-0.3374,-0.3378,-0.347,0,0,0,0,0,0,-0.2753,-0.2776,-0.287,-0.2878,-0.2833,-0.2923,-0.2937,-0.2949,-0.3032,-0.3046,-0.3006,-0.301,-0.3117,-0.3127,-0.3136,-0.3273,-0.318,-0.3184,-0.3186,-0.3373,-0.3376,-0.3379,0,0,0,0,0,0,-0.2772,-0.2782,-0.2874,-0.2873,-0.2882,-0.2922,-0.2934,-0.297,-0.3032,-0.2985,-0.2991,-0.3007,-0.31,-0.3124,-0.3131,-0.3187,-0.3176,-0.3179,-0.3182,-0.3183,-0.3376,-0.3378,0,0,0,0,0,0,-0.2778,-0.2787,-0.2871,-0.2878,-0.2885,-0.2981,-0.2956,-0.303,-0.3037,-0.298,-0.3039,-0.304,-0.3097,-0.3106,-0.3128,-0.318,-0.3185,-0.3176,-0.3178,-0.318,-0.3181,0,0,0,0,0,0,0,-0.2783,-0.27,-0.2823,-0.2882,-0.2889,-0.2954,-0.2956,-0.2958,-0.3037,-0.3038,-0.3039,-0.3039,-0.3155,-0.3159,-0.3163,-0.3175,0,0,-0.3175,-0.3177,0,0,0,0,0,0,0,0,-0.2698,-0.27,-0.2823,-0.2825,-0.2826,-0.2954,-0.2956,-0.2958,-0.3037,-0.3038,-0.3038,-0.3039,-0.3156,-0.3159,-0.3162,0,0,0,0,0,0,0,0,0,0,0,0,0,0,0,-0.2823,-0.2824,0,-0.2955,-0.2956,-0.2957,-0.3037,-0.3038,-0.3038,-0.3039,-0.3157,-0.3159,-0.3162,0,0,0,0,0,0,0,0,0,0,0,0,0,0,0,0,0,0,0,0,0,0,0,0,0,0,0,0,0,0,0,0,0,0,0,0,0,0,0,0,0,0,0,0,0,0,0,0,0,0,0,0,0,0,0,0,0,0,0,0,0,0,0,0,0,0,0,0,0]}],[{"header":{"parameterUnit":"kt","parameterCategory":2,"dx":1,"dy":1,"la1":30.253999710083008,"la2":30.299108505249023,"lo1":-89.0895004272461,"lo2":-89.04439544677734,"nx":28,"ny":28,"refTime":"2022-10-25T21:00:00:Z","depth":"4","parameterNumber":3,"parameterNumberName":"V-component_of_CURRENTS"},"data":[-0.086,-0.0978,-0.1048,-0.1208,-0.1307,-0.1442,-0.1498,-0.1495,-0.142,-0.1362,-0.1109,-0.0992,-0.0542,-0.074,-0.0108,-0.0027,0.0082,0.0505,0.0509,0.0667,0.0665,0.0663,0.0548,0,0,0,0,0,-0.0841,-0.0927,-0.1051,-0.1196,-0.1321,-0.1393,-0.1482,-0.15,-0.1489,-0.1384,-0.1323,-0.1039,-0.0594,-0.0395,-0.0113,-0.004,0.0337,0.0292,0.0417,0.0666,0.0663,0.0552,0,0,0,0,0,0,-0.0824,-0.0896,-0.1009,-0.1134,-0.1266,-0.1366,-0.1409,-0.141,-0.1421,-0.1326,-0.1266,-0.0947,-0.0766,-0.0343,-0.0047,0.0229,0.0307,0.0375,0.0388,0.0388,0.0259,0.0139,0.0223,0,0,0,0,0,-0.0797,-0.0853,-0.0935,-0.1083,-0.1182,-0.1288,-0.1365,-0.1393,-0.1382,-0.1358,-0.1198,-0.0957,-0.0666,-0.03,0.0006,0.031,0.0475,0.0573,0.0574,0.0566,0.0504,0.054,0.0526,0.0653,0.0652,0.0652,0.0652,0,-0.0756,-0.081,-0.095,-0.1022,-0.1069,-0.1162,-0.1224,-0.1239,-0.1259,-0.1184,-0.1173,-0.0952,-0.0791,-0.0309,-0.0019,0.0396,0.0456,0.0564,0.0554,0.0498,0.0538,0.0524,0.0511,0.065,0.065,0.065,0.065,0,-0.0733,-0.0778,-0.0879,-0.0964,-0.1001,-0.1065,-0.114,-0.1173,-0.1136,-0.1127,-0.1107,-0.0926,-0.066,-0.0381,-0.0028,0.0131,0.0402,0.0493,0.0365,0.0412,0.0514,0.0502,0.0646,0.0647,0.0648,0.0648,0.0649,0,-0.0695,-0.0762,-0.0833,-0.0874,-0.0973,-0.0969,-0.1038,-0.1027,-0.1001,-0.1002,-0.0863,-0.0804,-0.0526,-0.033,-0.0098,0.0178,0.0203,0.0372,0.0428,0.0347,0.0336,0.0416,0.0412,0.0438,0.0437,0.0436,0.0435,0,-0.0638,-0.0717,-0.0794,-0.0811,-0.0859,-0.0894,-0.0912,-0.0876,-0.0883,-0.0805,-0.0786,-0.0624,-0.0538,-0.0324,-0.007,-0.0067,0.0217,0.0258,0.0383,0.0384,0.0407,0.0405,0.0433,0.0433,0.0433,0.0432,0.0432,0,-0.0586,-0.0631,-0.0714,-0.0774,-0.0786,-0.0816,-0.083,-0.083,-0.076,-0.0721,-0.0636,-0.0539,-0.0414,-0.0339,-0.0081,-0.0135,0.0017,0.0143,0.0153,0.0193,0.0247,0.0293,0.0286,0.0284,0.0282,0.028,0.0278,0,-0.0528,-0.0601,-0.0595,-0.0665,-0.0698,-0.0659,-0.0676,-0.0647,-0.06,-0.0568,-0.0452,-0.0405,-0.0318,-0.0284,-0.019,-0.0032,0.0047,-0.0036,0.0232,0.024,0.0219,0.0214,0.0082,0.0253,0.0256,0.0258,0.026,0,-0.0468,-0.05,-0.0509,-0.0541,-0.0525,-0.0532,-0.0535,-0.0519,-0.0521,-0.0446,-0.0432,-0.0336,-0.0269,-0.022,-0.0136,-0.0055,0.0014,0.0019,0.0027,0.0076,0.0205,0.0186,0.02,0.0072,0.0074,0.0075,0.0242,0,-0.0424,-0.0449,-0.0463,-0.0474,-0.0471,-0.0481,-0.044,-0.0427,-0.0389,-0.0345,-0.0294,-0.0197,-0.0127,-0.0099,-0.0047,0.0005,0.0045,0.009,0.0141,0.0116,0.0192,0.0206,0.0082,0.0085,0.0086,0.0088,0,0,-0.0368,-0.0393,-0.0357,-0.0377,-0.0378,-0.0316,-0.0343,-0.0309,-0.0249,-0.0232,-0.0202,-0.0086,-0.002,0.0029,0.0021,0.0058,0.0121,0.0072,0.0119,0.0122,0.0125,0.0196,0.0206,0.0091,0.0092,0.0093,0.0093,0,-0.0344,-0.0329,-0.0354,-0.0343,-0.0318,-0.0288,-0.0292,-0.024,-0.0214,-0.019,-0.0116,-0.0064,0.0008,0.0067,0.0105,0.0079,0.0173,0.0097,0.0042,0.0132,0.0132,0.0133,0.0202,0.021,0.0098,0.0098,0.0097,0,-0.03,-0.0286,-0.029,-0.0271,-0.0246,-0.025,-0.0189,-0.0173,-0.0172,-0.0071,-0.0049,0.0013,0.0094,0.0125,0.0145,0.0172,0.0229,0.0197,0.0189,0.0192,0.0289,0.0288,0.0287,0.0299,0.0299,0.0299,0,0,-0.0283,-0.0292,-0.0253,-0.0261,-0.0253,-0.0201,-0.0185,-0.0152,-0.0103,-0.0082,-0.0021,0.0046,0.0095,0.0127,0.018,0.0209,0.0278,0.0216,0.0207,0.0198,0.0196,0.029,0.0289,0.0299,0.0299,0.0299,0,0,-0.0265,-0.0235,-0.0221,-0.0227,-0.0203,-0.0142,-0.014,-0.0106,-0.0061,-0.0049,0.0034,0.0053,0.0085,0.0143,0.0139,0.0195,0.0241,0.0244,0.0144,0.0134,0.0125,0.0106,0.021,0,0,0,0,0,-0.0227,-0.0243,-0.0232,-0.0227,-0.0178,-0.0155,-0.0145,-0.0095,-0.0067,-0.0072,-0.0009,0.0041,0.0159,0.0157,0.0174,0.0164,0.0305,0.0304,0.0303,0.0183,0.0171,0.0161,0,0,0,0,0,0,-0.0225,-0.022,-0.023,-0.0175,-0.0163,-0.0153,-0.01,-0.0086,-0.0066,-0.0059,0.0028,0.0044,0.0103,0.0153,0.0168,0.0156,0.0205,0.0305,0.0304,0.0303,0.0179,0.0169,0.0161,0,0,0,0,0,-0.0222,-0.0219,-0.0161,-0.0173,-0.0162,-0.01,-0.0099,-0.0087,-0.0069,0.0018,0.0034,-0.0034,0.0101,0.0119,0.0162,0.0148,0.0196,0.0201,0.0304,0.0304,0.0303,0.0174,0,0,0,0,0,0,-0.0221,-0.0198,-0.0157,-0.0151,-0.0168,-0.0099,-0.0089,-0.0089,0.0009,0.0024,-0.0039,-0.0035,0.01,0.0114,0.0127,0.014,0.0188,0.0193,0.0196,0.0304,0.0303,0.0303,0,0,0,0,0,0,-0.0199,-0.0193,-0.0154,-0.0151,-0.0144,-0.0099,-0.009,-0.004,0.0011,-0.0052,-0.0047,-0.0038,0.009,0.011,0.0121,0.0197,0.0182,0.0187,0.019,0.0193,0.0303,0.0303,0,0,0,0,0,0,-0.0195,-0.019,-0.0152,-0.0147,-0.014,-0.0065,-0.005,0.0003,-0.001,-0.0056,-0.0008,-0.0007,0.0086,0.0097,0.0116,0.0188,0.0195,0.0182,0.0185,0.0188,0.0189,0,0,0,0,0,0,0,-0.0192,-0.0248,-0.0197,-0.0143,-0.0137,-0.0094,-0.0092,-0.009,-0.001,-0.0009,-0.0008,-0.0007,0.0153,0.0159,0.0164,0.018,0,0,0.0181,0.0184,0,0,0,0,0,0,0,0,-0.0248,-0.0248,-0.0196,-0.0195,-0.0194,-0.0094,-0.0092,-0.009,-0.001,-0.0009,-0.0008,-0.0007,0.0155,0.0159,0.0164,0,0,0,0,0,0,0,0,0,0,0,0,0,0,0,-0.0196,-0.0195,0,-0.0093,-0.0092,-0.0091,-0.001,-0.0009,-0.0008,-0.0008,0.0156,0.0159,0.0163,0,0,0,0,0,0,0,0,0,0,0,0,0,0,0,0,0,0,0,0,0,0,0,0,0,0,0,0,0,0,0,0,0,0,0,0,0,0,0,0,0,0,0,0,0,0,0,0,0,0,0,0,0,0,0,0,0,0,0,0,0,0,0,0,0,0,0,0,0]}]]]